Weather History for Yakima, WA

Change the Weather History Date:

Friday, July 26, 2013

  Actual Average Record
Temperature  
Mean Temperature 82 °F 72 °F  
Max Temperature 101 °F 90 °F 103 °F (1998)
Min Temperature 63 °F 55 °F 42 °F (1953)
Degree Days  
Heating Degree Days 0 0  
Month to date heating degree days 0 19  
Since 1 June heating degree days 39 117  
Since 1 July heating degree days 0 19  
Cooling Degree Days 17 7  
Month to date cooling degree days 344 155  
Year to date cooling degree days 512 240  
Since 1 June cooling degree days 460 220  
Growing Degree Days 32 (Base 50)    
Moisture  
Dew Point 37 °F    
Average Humidity 26    
Maximum Humidity 44    
Minimum Humidity 8    
Precipitation  
Precipitation 0.00 in 0.00 in 0.21 in (1955)
Month to date precipitation T 0.19  
Year to date precipitation 4.17 4.48  
Snow  
Snow 0.00 in 0.00 in 0.00 in (2002)
Month to date snowfall 0.0 0.0  
Year to date snowfall 1.1 8.6  
Since 1 July snowfall 0.0 0.0  
Snow Depth 0.00 in    
Sea Level Pressure  
Sea Level Pressure 29.96 in    
Wind  
Wind Speed 7 mph (NNW)    
Max Wind Speed 20 mph    
Max Gust Speed 24 mph    
Visibility 10 miles    
Events      
T = Trace of Precipitation, MM = Missing Value Source: NWS Daily Summary

Daily Weather History Graph

Daily Weather History Graph

Search for Another Location

Airport:

Trip Planner

Search our weather history database for the weather conditions in past years. The results will help you decide how hot, cold, wet, or windy it might be!

Date:

Astronomy

Jul. 26, 2013 Rise Set
Actual Time 5:36 AM PDT 8:40 PM PDT
Civil Twilight 5:00 AM PDT 9:16 PM PDT
Nautical Twilight 4:13 AM PDT 10:02 PM PDT
Astronomical Twilight 3:17 AM PDT 10:58 PM PDT
Moon 10:34 PM PDT (7/26) 10:39 AM PDT (7/26)
Length of Visible Light 16h 16m
Length of Day
15h 04m
Waning Gibbous, 79% of the Moon is Illuminated
Jul 26
Waning Gibbous
Jul 29
Last Quarter
Aug 6
New
Aug 14
First Quarter
Aug 20
Full

Hourly Weather History & Observations

Time (PDT) Temp. Dew Point Humidity Pressure Visibility Wind Dir Wind Speed Gust Speed Precip Events Conditions
12:53 AM 77.0 °F 39.9 °F 26% 29.96 in 10.0 mi North 6.9 mph - N/A   Clear
1:53 AM 77.0 °F 37.9 °F 24% 29.96 in 10.0 mi NNW 12.7 mph 19.6 mph N/A   Clear
2:53 AM 75.0 °F 35.1 °F 23% 29.97 in 10.0 mi NNW 10.4 mph 17.3 mph N/A   Mostly Cloudy
3:53 AM 73.0 °F 34.0 °F 24% 29.98 in 10.0 mi NW 6.9 mph - N/A   Mostly Cloudy
4:53 AM 68.0 °F 36.0 °F 31% 29.99 in 10.0 mi NW 4.6 mph - N/A   Clear
5:53 AM 64.9 °F 36.0 °F 34% 30.00 in 10.0 mi Calm Calm - N/A   Clear
6:53 AM 64.0 °F 42.1 °F 45% 30.03 in 10.0 mi Variable 5.8 mph - N/A   Clear
7:53 AM 69.1 °F 42.1 °F 38% 30.03 in 10.0 mi WSW 6.9 mph - N/A   Clear
8:53 AM 77.0 °F 36.0 °F 23% 30.03 in 10.0 mi Calm Calm - N/A   Clear
9:53 AM 84.9 °F 32.0 °F 15% 30.01 in 10.0 mi Calm Calm - N/A   Clear
10:53 AM 90.0 °F 30.9 °F 12% 29.99 in 10.0 mi Calm Calm - N/A   Clear
11:53 AM 95.0 °F 30.0 °F 10% 29.98 in 10.0 mi NNE 3.5 mph - N/A   Clear
12:53 PM 93.9 °F 43.0 °F 17% 29.97 in 10.0 mi SSE 5.8 mph - N/A   Clear
1:53 PM 96.1 °F 33.1 °F 11% 29.95 in 10.0 mi South 4.6 mph - N/A   Clear
2:53 PM 99.0 °F 28.0 °F 8% 29.94 in 10.0 mi Variable 5.8 mph - N/A   Clear
3:53 PM 99.0 °F 27.0 °F 8% 29.91 in 10.0 mi Calm Calm - N/A   Clear
4:53 PM 100.0 °F 30.9 °F 9% 29.90 in 10.0 mi Calm Calm - N/A   Clear
5:53 PM 100.0 °F 37.0 °F 11% 29.89 in 10.0 mi North 10.4 mph - N/A   Clear
6:53 PM 95.0 °F 39.0 °F 14% 29.90 in 10.0 mi NNW 12.7 mph - N/A   Clear
7:53 PM 91.0 °F 42.1 °F 18% 29.92 in 10.0 mi NNW 15.0 mph 19.6 mph N/A   Clear
8:53 PM 84.9 °F 43.0 °F 23% 29.93 in 10.0 mi NNW 12.7 mph - N/A   Clear
9:53 PM 80.1 °F 44.1 °F 28% 29.96 in 10.0 mi North 6.9 mph - N/A   Clear
10:53 PM 79.0 °F 46.0 °F 31% 29.96 in 10.0 mi NNW 13.8 mph - N/A   Clear
11:53 PM 75.9 °F 46.9 °F 36% 29.97 in 10.0 mi NNW 12.7 mph - N/A   Clear